When you browse on this site, cookies collect data to enhance your experience and personalize the content and advertising you see.
Visit our Privacy Policy to learn more. By continuing to use the site, you agree to this use of cookies and data.

Stündliche Wetter Jambol

Heute, 12 August, Mittwoch

Zeit Temperatur Niederschläge Wind Luftdruck Luftfeuchtigkeit
00:00 +24°C° 0 mm 1 m/S 749 mmHg 46%
01:00 +24°C° 0 mm 1 m/S 749 mmHg 47%
02:00 +21°C° 0 mm 0 m/S 749 mmHg 47%
03:00 +20°C° 0 mm 0 m/S 749 mmHg 48%
04:00 +20°C° 0 mm 0 m/S 749 mmHg 48%
05:00 +20°C° 0 mm 0 m/S 749 mmHg 49%
06:00 +22°C° 0 mm 0 m/S 749 mmHg 44%
07:00 +25°C° 0 mm 0 m/S 749 mmHg 38%
08:00 +29°C° 0 mm 1 m/S 749 mmHg 33%
09:00 +31°C° 0 mm 1 m/S 749 mmHg 30%
10:00 +33°C° 0 mm 1 m/S 749 mmHg 28%
11:00 +35°C° 0 mm 1 m/S 750 mmHg 25%
12:00 +36°C° 0 mm 2 m/S 749 mmHg 25%
13:00 +36°C° 0 mm 2 m/S 749 mmHg 25%
14:00 +36°C° 0 mm 3 m/S 748 mmHg 26%
15:00 +35°C° 0 mm 3 m/S 748 mmHg 27%
16:00 +35°C° 0 mm 3 m/S 748 mmHg 28%
17:00 +35°C° 0 mm 3 m/S 748 mmHg 30%
18:00 +31°C° 0.2 mm 2 m/S 748 mmHg 36%
19:00 +29°C° 0.2 mm 2 m/S 749 mmHg 42%
20:00 +27°C° 0.2 mm 2 m/S 749 mmHg 47%
21:00 +26°C° 0.1 mm 2 m/S 749 mmHg 50%
22:00 +25°C° 0.1 mm 1 m/S 749 mmHg 53%
23:00 +24°C° 0.1 mm 1 m/S 749 mmHg 56%

Morgen, 13 August, Donnerstag

Zeit Temperatur Niederschläge Wind Luftdruck Luftfeuchtigkeit
00:00 +24°C° 0 mm 1 m/S 749 mmHg 56%
01:00 +24°C° 0 mm 1 m/S 749 mmHg 56%
02:00 +24°C° 0 mm 1 m/S 750 mmHg 55%
03:00 +23°C° 0 mm 1 m/S 750 mmHg 57%
04:00 +23°C° 0 mm 1 m/S 750 mmHg 58%
05:00 +22°C° 0 mm 1 m/S 750 mmHg 60%
06:00 +24°C° 0 mm 1 m/S 750 mmHg 54%
07:00 +26°C° 0 mm 1 m/S 750 mmHg 49%
08:00 +28°C° 0 mm 1 m/S 751 mmHg 44%
09:00 +29°C° 0 mm 2 m/S 751 mmHg 40%
10:00 +31°C° 0 mm 2 m/S 751 mmHg 36%
11:00 +32°C° 0 mm 2 m/S 751 mmHg 32%
12:00 +34°C° 0 mm 3 m/S 751 mmHg 33%
13:00 +34°C° 0 mm 3 m/S 750 mmHg 33%
14:00 +34°C° 0 mm 3 m/S 750 mmHg 33%
15:00 +33°C° 0 mm 4 m/S 750 mmHg 38%
16:00 +32°C° 0 mm 5 m/S 750 mmHg 44%
17:00 +30°C° 0 mm 6 m/S 750 mmHg 50%
18:00 +28°C° 0 mm 5 m/S 750 mmHg 59%
19:00 +26°C° 0 mm 4 m/S 750 mmHg 67%
20:00 +24°C° 0 mm 3 m/S 750 mmHg 76%
21:00 +24°C° 0 mm 3 m/S 750 mmHg 81%
22:00 +23°C° 0 mm 2 m/S 750 mmHg 86%
23:00 +21°C° 0 mm 2 m/S 750 mmHg 91%

übermorgen, 14 August, Freitag

Zeit Temperatur Niederschläge Wind Luftdruck Luftfeuchtigkeit
00:00 +21°C° 0 mm 2 m/S 750 mmHg 92%
01:00 +21°C° 0 mm 1 m/S 750 mmHg 93%
02:00 +21°C° 0 mm 1 m/S 750 mmHg 94%
03:00 +21°C° 0 mm 1 m/S 750 mmHg 94%
04:00 +20°C° 0 mm 1 m/S 750 mmHg 93%
05:00 +18°C° 0 mm 0 m/S 750 mmHg 93%
06:00 +22°C° 0 mm 1 m/S 750 mmHg 83%
07:00 +24°C° 0 mm 1 m/S 750 mmHg 72%
08:00 +25°C° 0 mm 1 m/S 750 mmHg 62%
09:00 +28°C° 0 mm 1 m/S 750 mmHg 53%
10:00 +30°C° 0 mm 1 m/S 750 mmHg 44%
11:00 +32°C° 0 mm 1 m/S 750 mmHg 35%
12:00 +34°C° 0 mm 2 m/S 749 mmHg 32%
13:00 +34°C° 0 mm 2 m/S 749 mmHg 30%
14:00 +35°C° 0 mm 2 m/S 749 mmHg 28%
15:00 +34°C° 0 mm 3 m/S 749 mmHg 28%
16:00 +34°C° 0 mm 4 m/S 748 mmHg 29%
17:00 +33°C° 0 mm 5 m/S 748 mmHg 30%
18:00 +30°C° 0 mm 4 m/S 748 mmHg 36%
19:00 +27°C° 0 mm 4 m/S 748 mmHg 42%
20:00 +24°C° 0 mm 3 m/S 749 mmHg 48%
21:00 +22°C° 0 mm 3 m/S 749 mmHg 54%
22:00 +21°C° 0 mm 2 m/S 749 mmHg 60%
23:00 +21°C° 0 mm 1 m/S 749 mmHg 65%

15 August, Samstag

Zeit Temperatur Niederschläge Wind Luftdruck Luftfeuchtigkeit
00:00 +21°C° 0 mm 1 m/S 749 mmHg 68%
01:00 +20°C° 0 mm 1 m/S 749 mmHg 70%
02:00 +20°C° 0 mm 1 m/S 749 mmHg 73%
03:00 +20°C° 0 mm 1 m/S 749 mmHg 74%
04:00 +17°C° 0 mm 0 m/S 749 mmHg 76%
05:00 +17°C° 0 mm 0 m/S 749 mmHg 77%
06:00 +21°C° 0 mm 1 m/S 749 mmHg 69%
07:00 +23°C° 0 mm 1 m/S 749 mmHg 61%
08:00 +25°C° 0 mm 2 m/S 749 mmHg 53%
09:00 +27°C° 0 mm 2 m/S 749 mmHg 46%
10:00 +29°C° 0 mm 3 m/S 749 mmHg 40%
11:00 +32°C° 0 mm 4 m/S 749 mmHg 33%
12:00 +33°C° 0 mm 5 m/S 749 mmHg 31%
13:00 +34°C° 0 mm 5 m/S 749 mmHg 28%
14:00 +34°C° 0 mm 6 m/S 748 mmHg 26%
15:00 +33°C° 0 mm 6 m/S 748 mmHg 28%
16:00 +32°C° 0 mm 7 m/S 748 mmHg 29%
17:00 +30°C° 0 mm 7 m/S 748 mmHg 31%
18:00 +28°C° 0 mm 6 m/S 748 mmHg 41%
19:00 +26°C° 0 mm 5 m/S 748 mmHg 50%
20:00 +22°C° 0 mm 4 m/S 748 mmHg 60%
21:00 +22°C° 0 mm 3 m/S 749 mmHg 65%
22:00 +21°C° 0 mm 2 m/S 749 mmHg 70%
23:00 +20°C° 0 mm 2 m/S 749 mmHg 75%

16 August, Sonntag

Zeit Temperatur Niederschläge Wind Luftdruck Luftfeuchtigkeit
00:00 +21°C° 0 mm 1 m/S 749 mmHg 75%
01:00 +21°C° 0 mm 1 m/S 749 mmHg 74%
02:00 +21°C° 0 mm 1 m/S 749 mmHg 74%
03:00 +21°C° 0 mm 1 m/S 749 mmHg 75%
04:00 +21°C° 0 mm 1 m/S 749 mmHg 76%
05:00 +20°C° 0 mm 1 m/S 749 mmHg 76%
06:00 +21°C° 0 mm 2 m/S 749 mmHg 71%
07:00 +22°C° 0 mm 3 m/S 749 mmHg 66%
08:00 +25°C° 0 mm 3 m/S 749 mmHg 60%
09:00 +26°C° 0 mm 4 m/S 750 mmHg 53%
10:00 +28°C° 0 mm 4 m/S 750 mmHg 45%
11:00 +29°C° 0 mm 5 m/S 750 mmHg 38%
12:00 +30°C° 0 mm 5 m/S 750 mmHg 36%
13:00 +32°C° 0 mm 5 m/S 750 mmHg 34%
14:00 +32°C° 0 mm 5 m/S 749 mmHg 31%
15:00 +32°C° 0 mm 6 m/S 749 mmHg 34%
16:00 +30°C° 0 mm 6 m/S 749 mmHg 36%
17:00 +30°C° 0 mm 6 m/S 749 mmHg 38%
18:00 +27°C° 0 mm 5 m/S 749 mmHg 47%
19:00 +25°C° 0 mm 5 m/S 749 mmHg 57%
20:00 +22°C° 0 mm 4 m/S 750 mmHg 66%
21:00 +21°C° 0 mm 3 m/S 750 mmHg 70%
22:00 +20°C° 0 mm 2 m/S 750 mmHg 73%
23:00 +19°C° 0 mm 2 m/S 751 mmHg 77%

17 August, Montag

Zeit Temperatur Niederschläge Wind Luftdruck Luftfeuchtigkeit
00:00 +18°C° 0 mm 2 m/S 751 mmHg 77%
01:00 +18°C° 0 mm 2 m/S 751 mmHg 77%
02:00 +19°C° 0 mm 1 m/S 751 mmHg 77%
03:00 +18°C° 0 mm 1 m/S 751 mmHg 77%
04:00 +18°C° 0 mm 1 m/S 751 mmHg 77%
05:00 +18°C° 0 mm 1 m/S 751 mmHg 77%
06:00 +19°C° 0 mm 2 m/S 751 mmHg 70%
07:00 +21°C° 0 mm 2 m/S 751 mmHg 62%
08:00 +24°C° 0 mm 3 m/S 751 mmHg 54%
09:00 +25°C° 0 mm 3 m/S 751 mmHg 47%
10:00 +27°C° 0 mm 4 m/S 751 mmHg 40%
11:00 +29°C° 0 mm 4 m/S 752 mmHg 33%
12:00 +30°C° 0 mm 5 m/S 751 mmHg 32%
13:00 +30°C° 0 mm 5 m/S 751 mmHg 32%
14:00 +32°C° 0 mm 6 m/S 751 mmHg 31%
15:00 +30°C° 0 mm 6 m/S 751 mmHg 33%
16:00 +30°C° 0 mm 6 m/S 750 mmHg 35%
17:00 +29°C° 0 mm 6 m/S 750 mmHg 37%
18:00 +27°C° 0 mm 5 m/S 750 mmHg 46%
19:00 +23°C° 0 mm 4 m/S 751 mmHg 54%
20:00 +21°C° 0 mm 3 m/S 751 mmHg 63%
21:00 +20°C° 0 mm 2 m/S 751 mmHg 67%
22:00 +19°C° 0 mm 2 m/S 751 mmHg 72%
23:00 +19°C° 0 mm 1 m/S 751 mmHg 77%
Mehr zeigen